This is the latest recevied weather packets stored in our database for station/object DG7FDL-7. If no packets are shown the sender has not sent any weather packets the latest 10 day(s).
| Time | Temp. | Humidity | Pressure | Rain* | Wind** | Luminosity | Snow |
|---|---|---|---|---|---|---|---|
| 1777354430 | 20° C | 39% | 1022.5 hPa | - | - | - | - |
| 1777353533 | 20.56° C | 39% | 1022.3 hPa | - | - | - | - |
| 1777352639 | 20.56° C | 39% | 1022.2 hPa | - | - | - | - |
| 1777350830 | 20.56° C | 39% | 1021.9 hPa | - | - | - | - |
| 1777349030 | 20.56° C | 39% | 1021.8 hPa | - | - | - | - |
| 1777348130 | 20.56° C | 39% | 1021.7 hPa | - | - | - | - |
| 1777347230 | 20.56° C | 39% | 1021.7 hPa | - | - | - | - |
| 1777346330 | 20.56° C | 39% | 1021.8 hPa | - | - | - | - |
| 1777345430 | 21.11° C | 38% | 1021.7 hPa | - | - | - | - |
| 1777344530 | 21.11° C | 38% | 1021.8 hPa | - | - | - | - |
| 1777343626 | 21.67° C | 39% | 1021.7 hPa | - | - | - | - |
| 1777342726 | 21.67° C | 39% | 1021.7 hPa | - | - | - | - |
| 1777341832 | 22.22° C | 38% | 1021.7 hPa | - | - | - | - |
| 1777340923 | 22.22° C | 38% | 1021.8 hPa | - | - | - | - |
| 1777340023 | 22.22° C | 38% | 1021.7 hPa | - | - | - | - |
| 1777339126 | 22.22° C | 37% | 1021.6 hPa | - | - | - | - |
| 1777338223 | 22.78° C | 37% | 1021.6 hPa | - | - | - | - |
| 1777337323 | 22.22° C | 38% | 1021.6 hPa | - | - | - | - |
| 1777336423 | 22.22° C | 38% | 1021.7 hPa | - | - | - | - |
| 1777335523 | 22.22° C | 37% | 1021.5 hPa | - | - | - | - |
| 1777334623 | 22.22° C | 37% | 1021.7 hPa | - | - | - | - |
| 1777333723 | 22.22° C | 37% | 1021.6 hPa | - | - | - | - |
| 1777332823 | 22.22° C | 37% | 1021.5 hPa | - | - | - | - |
| 1777331925 | 22.22° C | 36% | 1021.3 hPa | - | - | - | - |
| 1777331022 | 22.78° C | 36% | 1021.3 hPa | - | - | - | - |
* Rain since midnight (hover to see other rain measurements)
** Current wind speed in m/s (hover to see current wind gust speed)